Regional Weather Roundup
Issued by NWS

Home | Current Version | Previous Version | Graphics & Text | Print | Product List | Glossary Off
Versions: 1 2 3 4 5 6 7 8 9 10 11 12 13 14 15 16 17 18 19 20 21 22 23 24 25 26 27 28 29 30 31 32 33 34 35 36 37 38 39 40 41 42 43 44 45 46 47 48 49 50

000
ASUS43 KMPX 230001
RWRMN
WEATHER ROUNDUP FOR MINNESOTA
NATIONAL WEATHER SERVICE TWIN CITIES/CHANHASSEN MN
700 PM CDT WED OCT 22 2014


NOTE: "FAIR" INDICATES FEW OR NO CLOUDS BELOW 12,000 FEET WITH NO
SIGNIFICANT WEATHER AND/OR OBSTRUCTIONS TO VISIBILITY. N/A MEANS
CURRENT SKY AND/OR WEATHER CONDITIONS ARE NOT AVAILABLE.

MNZ060>063-068>070-230100-
   Twin Cities Metro

CITY           SKY/WX    TMP DP  RH WIND       PRES   REMARKS
TWIN CITIES    CLOUDY    57  41  55 SE10      30.04S
6HR MIN TEMP:  53; 6HR MAX TEMP:  60; 6HR PCP: TRACE;

ST PAUL        MOCLDY    57  41  55 SE15      30.06R
CRYSTAL        CLOUDY    59  41  51 SE15G24   30.02S
LAKEVILLE      MOCLDY    55  43  62 SE9G20    30.04S
EDEN PRAIRIE   CLOUDY    58  41  53 S16       30.03R
6HR MIN TEMP:  55; 6HR MAX TEMP:  63;

SOUTH ST PAUL  CLOUDY    58  40  51 SE12G20   30.05S
LAKE ELMO      FAIR      55  41  58 SE9G18    30.07R
$$
MNZ001>005-007-008-013>017-022>024-027-028-230100-
   Northwest Minnesota

CITY           SKY/WX    TMP DP  RH WIND       PRES   REMARKS
BEMIDJI        CLOUDY    56  43  60 S12G18    29.91R
HALLOCK        DRIZZLE   55  54  94 SW9       29.80R
ROSEAU         CLOUDY    61  48  63 S18       29.82S
WARROAD        CLOUDY    61  48  63 S12       29.84S
THIEF RVR FALL CLOUDY    57  48  72 S16       29.84S
CROOKSTON      CLOUDY    55  54  94 SW5       29.85R
FOSSTON        RAIN      57  46  67 S15       29.87R
DETROIT LAKES  DRIZZLE   55  50  82 S10       29.90R
MOORHEAD       CLOUDY    57  57 100 S5        29.88R
PARK RAPIDS    CLOUDY    57  43  59 SE14      29.91S
MAHNOMEN       DRIZZLE   59  46  63 S12       29.86S
$$
MNZ006-009>011-018-025>026-230100-
   North Central Minnesota

CITY           SKY/WX    TMP DP  RH WIND       PRES   REMARKS
BAUDETTE       CLOUDY    58  43  57 S12G20    29.88S
FLAG ISLAND    CLOUDY    54  46  76 S22       29.82F
INTL FALLS     MOCLDY    56  42  59 S8G20     29.94R
6HR MIN TEMP:  56; 6HR MAX TEMP:  63;

WASKISH        CLOUDY    57  45  62 CALM      29.90S
BIG FORK       MOCLDY    55  43  62 S14       29.96S
LONGVILLE      CLOUDY    54  43  66 SE7       29.96S
GRAND RAPIDS   MOCLDY    54  39  58 SE13      29.98S
CRANE LAKE     PTCLDY    52  37  58 S6        30.00R
ORR            PTCLDY    52  37  58 SE8       29.96R
COOK           PTCLDY    54  39  58 SE7       30.00R
WALKER         MOCLDY    55  42  62 SE8       29.93S
$$
MNZ012-019>021-037-230100-
   Northeast Minnesota

CITY           SKY/WX    TMP DP  RH WIND       PRES   REMARKS
DULUTH         PTCLDY    49  40  71 SE10      30.04S
6HR MIN TEMP:  49; 6HR MAX TEMP:  57;

ELY            PTCLDY    48  36  61 SE12G17   30.02S
HIBBING        PTCLDY    54  38  54 S8        30.01R
EVELETH        PTCLDY    52  37  58 SE9       30.03S
DULUTH HARBOR  PTCLDY    52  46  82 CALM      30.06R
TWO HARBORS    PTCLDY    50  30  46 E5        30.06R
SILVER BAY     CLEAR     46  39  76 NE5       30.06F
GRAND MARAIS     N/A     47  35  63 NE8       30.12F
G MARAIS ARPRT PTCLDY    41  28  60 E6        30.11S
$$
MNZ029>031-032-039>041-046>048-054>057-064-230100-
   West Central Minnesota

CITY           SKY/WX    TMP DP  RH WIND       PRES   REMARKS
FERGUS FALLS   CLOUDY    55  54  94 S3        29.91R
WHEATON        CLOUDY    54  52  94 CALM      29.93R
MORRIS         LGT RAIN  57  55  94 S8        29.92R
ALEXANDRIA     CLOUDY    61  46  57 S16G22    29.95R
ELBOW LAKE     LGT RAIN  56  53  88 S9        29.91R
WADENA         CLOUDY    59  45  58 SE12      29.92R
GLENWOOD       CLOUDY    61  46  59 SE14      29.95R
APPLETON       LGT RAIN  61  55  82 SW6       29.92S
BENSON         LGT RAIN  57  54  88 S8        29.95R
ORTONVILLE     CLOUDY    59  55  88 S6        29.91S
MADISON        DRIZZLE   63  59  88 S5        29.93S
WILLMAR        CLOUDY    63  45  51 S16G22    29.97R
$$
MNZ033>034-036-042>043-049>051-058-059-230100-
   Central Minnesota

CITY           SKY/WX    TMP DP  RH WIND       PRES   REMARKS
ST CLOUD       CLOUDY    58  43  57 SE10      29.99R
6HR MIN TEMP:  58; 6HR MAX TEMP:  63;

SAUK CENTRE    CLOUDY    60  45  57 SE16      29.96R
PAYNESVILLE    MOCLDY    58  44  59 E13G20    29.97R
AITKIN         CLOUDY    55  43  62 SE9       29.98S
PINE RIVER     CLOUDY    55  45  67 SE13      29.99S
BRAINERD       CLOUDY    54  42  64 SE9       29.98S
STAPLES        CLOUDY    55  43  62 SE10      29.94S
LONG PRAIRIE   CLOUDY    57  45  62 SE13      29.96R
LITTLE FALLS   CLOUDY    55  41  58 SE7       29.98R
LITCHFIELD     CLOUDY    61  45  55 SE8       29.99R
BUFFALO        CLOUDY    57  41  55 S5        30.02R
MAPLE LAKE     CLOUDY    57  45  63 SE9       30.01R
$$
MNZ037-044-045-052-053-230100-
   East Central Minnesota

CITY           SKY/WX    TMP DP  RH WIND       PRES   REMARKS
PRINCETON      CLOUDY    57  43  58 SE10      30.02R
MORA           MOCLDY    52  39  62 SE6       30.04S
CAMBRIDGE      MOCLDY    57  43  58 SE8       30.01S
RUSH CITY      MOCLDY    54  39  56 SE10      30.04S
MOOSE LAKE     MOCLDY    48  43  81 SE3       30.01S
HINCKLEY       FAIR      54  39  58 SE6       30.04R
CLOQUET        MOCLDY    50  43  76 SE5       30.04R
MCGREGOR       MOCLDY    52  41  66 SE8       30.01S
$$
MNZ071>073-080-081-089-090-097-098-230100-
   Southwest Minnesota

CITY           SKY/WX    TMP DP  RH WIND       PRES   REMARKS
MONTEVIDEO     RAIN      61  55  82 S3        29.96R
GRANITE FALLS  HVY RAIN  60  56  87 S6        29.98R
CANBY          CLOUDY    60  57  89 CALM      29.94R
MARSHALL       CLOUDY    61  55  82 SW9       29.95R
REDWOOD FALLS  CLOUDY    63  46  54 S18       29.96R
OLIVIA         CLOUDY    63  45  51 S17       29.96R
PIPESTONE      LGT RAIN  57  57 100 SW6       29.97S
WINDOM         MOCLDY    63  46  55 S12G23    30.00R
WORTHINGTON    CLOUDY    61  55  82 SW10      30.01R
JACKSON        MOCLDY    61  45  55 SE14G22   30.00R
TRACY          RAIN      61  58  91 SW6       29.98R
SLAYTON        LGT RAIN  59  57  93 SW10      29.99S
$$
MNZ065>067-074>077-082>085-091>093-230100-
   South Central Minnesota

CITY           SKY/WX    TMP DP  RH WIND       PRES   REMARKS
MANKATO        CLOUDY    57  39  51 SE18      30.02S
NEW ULM        MOCLDY    61  46  59 S17G24    29.99R
ST JAMES       MOCLDY    63  45  51 SE16G25   30.01R
FAIRMONT       MOCLDY    59  43  55 S17G28    30.02R
GLENCOE        MOCLDY    60  46  59 SE10G22   30.00R
FARIBAULT      CLOUDY    57  43  58 SE17      30.06S
OWATONNA       CLOUDY    57  39  51 SE15G22   30.06S
WASECA         CLOUDY    55  37  50 SE15G22   30.07R
ALBERT LEA     CLOUDY    57  41  54 SE15      30.08R
$$
MNZ078>079-086>088-094>096-230100-
   Southeast Minnesota

CITY           SKY/WX    TMP DP  RH WIND       PRES   REMARKS
ROCHESTER      MOCLDY    54  39  57 S17G24    30.12S
6HR MIN TEMP:  54; 6HR MAX TEMP:  59;

STANTON        MOCLDY    58  39  49 SE12G20   30.05S
DODGE CENTER   MOCLDY    55  41  58 S15G21    30.09S
WINONA         CLEAR     54  41  62 SE9       30.15S
AUSTIN         CLOUDY    55  39  54 S12       30.10S
PRESTON        PTCLDY    52  38  57 SE10G16   30.15R
$$
ABBREVIATIONS USED IN REMARKS
   TC - TEMPERATURES IN CELSIUS
  WCI - WIND CHILL INDEX
   HX - HEAT INDEX
  VSB - VISIBILITY
$$



USA.gov is the U.S. government's official web portal to all federal, state and local government web resources and services.